CW3071 Weather Reports


time (UTC)temp
F
wind
direction
speed
knots
gust
knots
rain 1hr
in
rain 24hr
in
rain mn
in
humidity
%
barometer
mb
20260831111615 47 0 0.0 2.6 0.00 0.00 0.00 81 1018.2
20260831104601 49 0 0.0 2.6 0.00 0.00 0.00 79 1018.1
20260831103118 49 0 0.0 1.7 0.00 0.00 0.00 79 1018.1
20260831101605 49 0 0.0 0.9 0.00 0.00 0.00 80 1018.0
20260831100100 50 0 0.0 2.6 0.00 0.00 0.00 79 1017.8
20260831094602 50 0 0.0 0.9 0.00 0.00 0.00 78 1017.7
20260831093106 50 350 0.0 1.7 0.00 0.00 0.00 77 1017.6
20260831091614 51 350 1.7 3.5 0.00 0.00 0.00 76 1017.5
20260831090114 51 0 0.0 1.7 0.00 0.00 0.00 76 1017.3
20260831084600 52 0 0.0 3.5 0.00 0.00 0.00 76 1017.4
20260831083113 52 0 0.0 0.9 0.00 0.00 0.00 77 1017.4
20260831081602 52 0 0.0 0.9 0.00 0.00 0.00 77 1017.5
20260831080112 53 0 0.0 1.7 0.00 0.00 0.00 76 1017.4
20260831074611 53 0 0.0 1.7 0.00 0.00 0.00 75 1017.3
20260831073102 54 350 0.0 0.0 0.00 0.00 0.00 73 1017.3
20260831071603 54 0 0.0 1.7 0.00 0.00 0.00 72 1017.3
20260831064603 56 350 0.9 3.5 0.00 0.00 0.00 69 1017.4
20260831063106 57 350 1.7 3.5 0.00 0.00 0.00 69 1017.3
20260831061604 58 0 0.0 2.6 0.00 0.00 0.00 68 1017.4
20260831060121 58 0 0.0 3.5 0.00 0.00 0.00 67 1017.1
20260831054617 59 0 0.9 3.5 0.00 0.00 0.00 66 1016.9
20260831053105 60 350 0.0 2.6 0.00 0.00 0.00 65 1016.8
20260831051603 60 350 0.9 3.5 0.00 0.00 0.00 64 1016.9
20260831050117 61 0 0.9 2.6 0.00 0.00 0.00 62 1016.7
20260831044604 62 305 2.6 5.2 0.00 0.00 0.00 60 1016.4
20260831043106 62 299 1.7 6.1 0.00 0.00 0.00 59 1016.5
20260831041629 64 297 1.7 6.1 0.00 0.00 0.00 56 1016.4
20260831040108 65 262 1.7 4.3 0.00 0.00 0.00 52 1016.5
20260831034606 66 247 1.7 6.1 0.00 0.00 0.00 47 1016.2
20260831033110 67 172 1.7 5.2 0.00 0.00 0.00 45 1016.3
20260831031612 68 0 0.0 5.2 0.00 0.00 0.00 41 1016.0
20260831030118 70 251 0.9 7.8 0.00 0.00 0.00 30 1015.8
20260831024602 72 0 1.7 6.1 0.00 0.00 0.00 27 1015.5
20260831023109 73 263 1.7 7.0 0.00 0.00 0.00 26 1015.1
20260831021613 73 257 2.6 9.6 0.00 0.00 0.00 25 1015.0
20260831020113 74 225 4.3 13.0 0.00 0.00 0.00 25 1014.8
20260831014607 75 235 4.3 10.4 0.00 0.00 0.00 24 1014.6
20260831013107 76 222 4.3 11.3 0.00 0.00 0.00 23 1014.6
20260831011603 77 309 5.2 12.2 0.00 0.00 0.00 23 1014.5
20260831010107 78 255 5.2 13.9 0.00 0.00 0.00 24 1014.3
20260831004604 78 243 7.0 13.9 0.00 0.00 0.00 23 1014.5
20260831003107 79 227 3.5 13.0 0.00 0.00 0.00 26 1014.5
20260831001602 79 259 6.1 11.3 0.00 0.00 0.00 25 1014.6
20260831000106 79 233 6.1 13.9 0.00 0.00 0.00 24 1014.7
20260830234607 79 211 7.0 17.4 0.00 0.00 0.00 27 1014.5
20260830233106 79 196 7.0 13.9 0.00 0.00 0.00 29 1014.5
20260830231606 80 220 6.1 16.5 0.00 0.00 0.00 29 1014.3
20260830230111 79 238 5.2 13.9 0.00 0.00 0.00 30 1014.6
20260830224609 78 174 4.3 16.5 0.00 0.00 0.00 30 1014.6
20260830223108 79 268 7.0 17.4 0.00 0.00 0.00 28 1014.7
20260830221627 79 206 7.8 13.9 0.00 0.00 0.00 31 1014.8
20260830220116 78 217 7.0 18.2 0.00 0.00 0.00 32 1015.0
20260830214607 79 260 7.8 17.4 0.00 0.00 0.00 31 1015.0
20260830213106 78 214 9.6 19.1 0.00 0.00 0.00 30 1015.1
20260830211611 77 242 7.8 16.5 0.00 0.00 0.00 31 1015.1
20260830210105 77 201 8.7 20.9 0.00 0.00 0.00 31 1015.1
20260830204607 77 218 7.8 20.0 0.00 0.00 0.00 32 1015.2
20260830203105 77 274 7.0 21.7 0.00 0.00 0.00 32 1015.2
20260830201635 77 252 8.7 20.0 0.00 0.00 0.00 33 1015.1
20260830200113 78 261 9.6 23.5 0.00 0.00 0.00 31 1015.2
20260830194615 78 193 11.3 24.3 0.00 0.00 0.00 31 1015.0
20260830193112 79 302 7.8 21.7 0.00 0.00 0.00 32 1014.5
20260830191607 79 226 8.7 20.0 0.00 0.00 0.00 33 1014.5
20260830190103 78 213 10.4 23.5 0.00 0.00 0.00 32 1014.2
20260830184606 79 194 11.3 21.7 0.00 0.00 0.00 31 1014.2
20260830183103 77 219 8.7 20.9 0.00 0.00 0.00 33 1014.4
20260830181607 77 240 8.7 21.7 0.00 0.00 0.00 31 1014.4
20260830180105 79 215 12.2 22.6 0.00 0.00 0.00 33 1014.3
20260830174603 79 204 8.7 20.9 0.00 0.00 0.00 34 1014.3
20260830173123 78 222 7.8 13.0 0.00 0.00 0.00 36 1014.6
20260830171604 76 182 7.0 13.9 0.00 0.00 0.00 42 1014.7
20260830170110 75 262 7.0 16.5 0.00 0.00 0.00 41 1015.1
20260830164612 75 210 7.0 14.8 0.00 0.00 0.00 44 1015.1
20260830163115 72 188 7.0 18.2 0.00 0.00 0.00 48 1015.2
20260830161610 72 203 8.7 18.2 0.00 0.00 0.00 49 1015.1
20260830160107 71 172 7.0 16.5 0.00 0.00 0.00 51 1015.1
20260830154612 70 210 7.0 13.9 0.00 0.00 0.00 53 1015.2
20260830153112 69 228 7.8 15.6 0.00 0.00 0.00 55 1015.3
20260830151604 68 200 6.1 13.9 0.00 0.00 0.00 57 1015.3
20260830150106 67 203 7.8 16.5 0.00 0.00 0.00 60 1015.5
20260830144613 65 190 5.2 13.0 0.00 0.00 0.00 62 1015.3
20260830143059 65 222 6.1 14.8 0.00 0.00 0.00 63 1014.9
20260830141620 64 168 6.1 12.2 0.00 0.00 0.00 65 1014.8
20260830140119 64 194 5.2 14.8 0.00 0.00 0.00 65 1014.9
20260830134608 64 226 7.0 14.8 0.00 0.00 0.00 65 1014.8
20260830133108 63 213 6.1 11.3 0.00 0.00 0.00 67 1014.8
20260830131600 62 191 5.2 10.4 0.00 0.00 0.00 67 1014.9
20260830130108 62 207 4.3 11.3 0.00 0.00 0.00 68 1015.0
20260830124602 62 222 1.7 7.8 0.00 0.00 0.00 69 1015.1
20260830123105 62 195 0.0 5.2 0.00 0.00 0.00 69 1015.0
20260830121603 61 0 0.9 2.6 0.00 0.00 0.00 68 1014.7
20260830120107 62 154 1.7 9.6 0.00 0.00 0.00 68 1014.5
20260830114605 62 162 4.3 10.4 0.00 0.00 0.00 67 1014.5
20260830113101 61 165 2.6 5.2 0.00 0.00 0.00 68 1014.6